Wind_Speed
3 3 3 3 3 3 3 2 2 2 2 2 2 2 2 3 3 3 3 3 3 3 3 4 5 6 7 8 9 10 11 11 12 12 12 13 13 14
2 2 2 2 2 2 2 2 2 2 2 2 3 2 3 4 4 4 3 3 3 4 5 5 6 7 7 8 9 10 11 12 12 13 14 14 14 15
2 1 1 1 1 1 1 1 1 1 2 3 3 4 4 4 4 4 4 4 5 5 5 6 7 7 8 9 10 11 12 12 13 13 14 15 15 16
2 2 1 1 1 1 1 1 1 2 2 3 4 5 5 5 6 6 6 6 6 6 7 8 9 9 10 10 11 12 13 14 15 15 16 17 18 19
3 3 3 3 2 2 2 2 3 3 4 4 5 6 6 7 7 7 7 8 8 9 9 10 11 12 13 13 13 14 15 15 16 17 18 19 21 21
4 3 4 4 4 3 4 4 4 5 5 6 6 6 7 8 8 9 9 10 11 11 12 13 13 14 15 16 16 17 18 18 19 20 21 22 24 24
5 5 5 6 5 5 6 6 6 7 8 8 8 9 9 10 11 11 12 12 13 14 15 15 16 17 18 19 19 20 20 21 22 23 24 25 26 27
8 7 7 7 7 8 8 9 9 9 10 10 11 11 12 13 13 14 14 15 16 17 17 18 19 20 20 21 22 23 23 24 24 25 26 27 28 30
9 9 9 9 10 10 10 11 11 12 12 13 13 14 15 15 16 16 17 17 18 19 20 21 22 22 23 24 25 25 26 27 28 28 29 30 31 32
11 11 11 12 12 12 12 12 13 14 15 16 16 17 17 18 19 19 19 20 21 21 22 23 24 25 26 27 28 29 29 30 31 31 32 33 34 35
14 13 14 13 14 14 15 16 16 17 18 18 19 20 20 21 21 22 23 23 24 24 25 26 27 28 29 30 31 32 32 33 34 35 35 36 37 37
15 15 16 16 17 17 17 18 19 20 20 21 22 23 23 24 24 24 25 26 26 27 28 29 30 30 31 32 33 34 35 36 36 37 37 38 39 39
16 16 17 18 19 20 20 20 21 22 23 24 25 25 26 26 27 27 28 28 29 30 31 32 32 33 34 34 35 37 37 38 38 39 40 40 41 42
18 18 19 19 20 21 22 23 23 24 25 26 27 27 28 29 29 30 30 31 32 33 34 34 35 36 36 37 37 38 40 40 41 42 43 43 43 44
20 21 21 22 23 23 24 24 25 26 26 27 28 29 30 31 32 33 33 34 34 35 36 36 37 38 39 39 40 41 42 43 44 45 45 46 46 46
24 24 24 24 25 26 27 28 28 28 29 29 30 31 32 32 34 34 35 36 37 38 39 39 40 41 41 42 43 44 45 46 47 47 47 48 48 48
26 26 26 27 28 28 29 30 30 31 32 32 33 33 34 35 36 37 38 39 40 41 41 42 43 44 45 46 47 47 48 49 49 49 50 50 50 51
28 28 29 30 31 31 32 32 33 34 35 35 36 37 37 38 39 40 41 42 43 43 44 45 47 48 49 49 50 50 51 51 51 52 52 53 52 53
29 30 30 31 32 33 34 35 36 37 38 38 39 40 41 42 43 43 44 45 46 46 47 49 50 51 51 51 52 53 53 53 54 55 55 56 56 55
30 31 32 32 33 35 36 37 38 39 40 41 42 43 44 45 46 46 47 48 49 49 50 51 52 53 53 54 54 55 56 57 57 57 57 58 58 57
31 32 33 35 36 37 38 39 39 40 42 43 44 45 47 48 48 49 50 51 52 52 53 54 55 56 57 57 57 58 59 59 59 59 59 58 57 57
34 35 36 37 38 39 40 41 42 43 44 46 47 48 49 50 51 52 53 54 54 55 56 57 58 59 60 60 60 60 60 61 60 60 60 60 59 58
37 38 39 40 41 42 43 44 45 46 47 48 49 50 51 53 53 54 55 56 57 58 59 59 60 61 62 62 62 62 61 61 60 60 59 60 60 58
Wind_Direction
75 73 71 69 69 75 77 78 67 54 48 35 14 5 0 356 1 349 329 334 335 332 326 302 299 296 294 293 290 286 282 278 276 275 273 274 277 277
73 70 69 68 67 66 64 60 53 45 36 24 11 357 351 348 349 341 329 311 304 316 314 313 309 303 301 297 292 292 289 285 280 278 276 276 278 279
52 31 26 53 57 61 39 30 31 24 7 355 347 346 342 341 340 341 333 318 306 301 305 305 307 310 315 309 300 299 295 290 285 283 281 278 278 281
353 337 338 323 326 329 334 326 325 329 329 328 324 322 321 315 314 313 314 313 311 302 301 303 302 302 307 308 307 305 303 295 291 288 286 282 281 284
321 310 303 291 290 309 314 314 312 313 317 316 313 314 317 313 309 306 307 306 305 304 301 299 299 300 301 301 302 303 302 298 294 292 288 285 283 283
301 294 291 290 289 289 292 292 293 299 304 305 305 308 312 311 309 306 305 305 304 305 305 302 300 299 300 301 301 300 299 298 295 292 290 288 287 286
292 287 280 283 285 288 290 290 291 293 298 301 301 304 304 303 304 303 301 300 301 301 301 302 302 302 302 301 301 300 298 297 295 293 291 290 289 288
283 283 279 276 279 284 287 288 289 291 294 298 300 301 302 302 301 300 300 299 298 298 298 297 298 299 300 300 300 299 299 298 296 294 293 292 291 289
279 279 279 276 277 281 284 285 287 288 289 293 296 298 300 300 299 298 297 297 297 296 297 297 297 297 298 299 300 300 299 299 298 296 295 293 291 290
277 279 280 279 280 282 283 284 286 288 290 291 293 295 297 298 297 296 295 295 295 294 295 296 297 298 298 298 298 299 299 298 297 297 296 294 292 290
272 275 275 277 278 281 283 284 284 285 286 289 290 292 294 295 295 295 294 294 294 295 295 296 295 296 296 297 297 297 297 297 297 297 297 296 294 292
274 276 276 276 278 280 282 285 286 286 287 288 289 290 291 292 293 294 294 294 294 294 295 295 296 295 296 297 297 296 297 297 297 297 297 297 296 295
277 278 279 279 279 281 282 284 286 287 287 288 289 289 290 291 292 293 293 294 294 295 295 295 296 295 296 296 296 296 296 297 297 297 297 297 296 295
276 278 281 282 283 283 284 285 286 287 288 289 289 289 290 291 292 293 293 293 294 295 295 295 296 296 296 296 296 296 297 297 297 297 297 297 296 295
277 278 280 282 284 285 286 287 288 289 290 290 291 291 291 291 292 293 294 294 294 295 295 295 295 296 296 297 297 297 297 297 296 296 296 296 295 294
277 277 280 282 283 284 286 287 288 289 290 291 292 291 292 292 292 293 294 294 295 295 295 295 295 295 296 296 296 297 297 297 296 296 296 296 296 295
278 279 281 282 283 284 286 287 288 289 290 291 291 292 293 293 293 293 293 293 294 294 295 295 295 296 296 296 297 297 297 297 296 296 295 295 295 294
279 281 282 283 284 285 286 286 287 288 290 290 291 292 292 293 293 293 293 293 293 293 294 294 295 296 296 297 297 296 296 296 295 295 295 294 294 294
280 282 284 285 285 286 286 287 288 289 290 291 291 291 292 292 293 293 293 293 294 294 294 295 295 296 296 296 296 296 295 295 295 295 294 294 294 293
283 284 285 286 287 287 288 288 289 290 290 290 291 291 292 292 292 292 293 293 294 294 294 295 295 295 296 296 296 296 295 295 294 294 294 294 294 293
284 285 286 287 288 288 289 289 289 290 290 291 292 292 292 292 293 293 293 293 294 294 294 294 294 295 295 295 296 295 295 294 294 294 294 293 293 293
285 286 287 288 288 289 289 290 290 291 291 292 292 292 292 293 293 293 293 293 293 294 294 294 295 295 295 295 295 295 294 294 294 294 293 293 293 292
287 287 288 289 289 289 290 290 291 291 292 292 293 293 293 294 294 294 294 294 294 295 295 295 295 296 295 295 295 294 294 293 293 293 293 293 293 292
Height
5871 5871 5871 5870 5870 5870 5870 5869 5870 5869 5868 5868 5867 5867 5865 5864 5863 5862 5861 5860 5859 5859 5859 5858 5857 5857 5857 5855 5855 5854 5854 5853 5853 5853 5853 5853 5852 5852
5871 5871 5871 5871 5870 5870 5870 5869 5869 5869 5869 5868 5867 5867 5866 5864 5863 5862 5861 5860 5859 5859 5858 5857 5856 5856 5855 5853 5852 5852 5851 5850 5850 5850 5849 5849 5849 5848
5871 5871 5871 5870 5870 5870 5870 5869 5869 5869 5869 5868 5867 5867 5866 5864 5863 5862 5861 5860 5859 5858 5857 5856 5855 5854 5853 5851 5850 5849 5848 5847 5846 5846 5845 5845 5844 5844
5871 5870 5870 5870 5870 5870 5869 5869 5869 5868 5868 5868 5867 5866 5865 5864 5863 5862 5860 5859 5858 5857 5856 5855 5854 5852 5851 5849 5848 5846 5845 5844 5843 5842 5841 5840 5840 5839
5870 5870 5869 5869 5869 5869 5869 5868 5868 5868 5867 5867 5866 5865 5864 5863 5862 5861 5859 5858 5857 5856 5854 5853 5852 5850 5849 5847 5845 5844 5842 5841 5840 5838 5837 5836 5835 5834
5870 5869 5868 5868 5868 5868 5868 5867 5867 5867 5866 5866 5865 5864 5863 5862 5860 5859 5858 5857 5855 5854 5852 5851 5849 5848 5846 5844 5842 5840 5838 5837 5835 5834 5833 5831 5830 5828
5868 5868 5867 5867 5867 5867 5866 5866 5866 5865 5865 5864 5863 5862 5861 5860 5858 5857 5856 5854 5852 5851 5849 5848 5846 5844 5842 5840 5838 5836 5834 5832 5830 5829 5827 5825 5823 5822
5867 5866 5865 5865 5865 5865 5864 5864 5864 5863 5863 5862 5861 5860 5858 5857 5856 5854 5853 5851 5849 5848 5846 5844 5842 5840 5838 5836 5834 5832 5829 5827 5825 5823 5820 5818 5816 5814
5864 5864 5863 5863 5862 5862 5862 5862 5861 5860 5860 5859 5858 5857 5856 5854 5852 5851 5849 5847 5845 5844 5842 5839 5837 5835 5833 5831 5829 5826 5824 5821 5818 5816 5813 5810 5808 5805
5862 5861 5861 5860 5860 5859 5859 5859 5858 5857 5856 5855 5854 5853 5852 5850 5848 5846 5844 5842 5841 5839 5837 5834 5832 5829 5827 5824 5822 5819 5817 5814 5811 5808 5805 5801 5798 5795
5859 5858 5858 5857 5857 5856 5856 5855 5854 5853 5852 5851 5850 5848 5847 5845 5843 5841 5839 5837 5835 5833 5830 5828 5825 5823 5820 5817 5814 5811 5808 5805 5802 5799 5795 5791 5788 5784
5855 5855 5854 5853 5853 5852 5851 5850 5849 5848 5847 5846 5844 5843 5841 5839 5837 5835 5833 5831 5828 5826 5823 5821 5818 5815 5813 5809 5806 5802 5799 5795 5792 5788 5784 5780 5776 5772
5851 5851 5850 5849 5848 5847 5846 5845 5844 5843 5841 5840 5838 5836 5834 5832 5830 5828 5826 5823 5821 5818 5815 5812 5810 5806 5804 5801 5797 5793 5789 5785 5781 5777 5773 5769 5765 5761
5847 5846 5845 5844 5843 5842 5841 5839 5838 5836 5835 5833 5831 5829 5827 5825 5822 5820 5817 5815 5812 5809 5806 5803 5800 5797 5794 5790 5787 5783 5779 5774 5770 5766 5762 5757 5753 5749
5842 5841 5840 5838 5837 5836 5834 5833 5831 5829 5828 5826 5824 5821 5819 5816 5814 5811 5808 5805 5803 5800 5796 5793 5790 5786 5783 5779 5776 5772 5768 5763 5759 5754 5750 5745 5741 5737
5836 5834 5833 5832 5831 5829 5828 5826 5824 5822 5820 5818 5816 5813 5810 5808 5805 5802 5799 5796 5793 5789 5786 5782 5778 5775 5771 5767 5763 5759 5755 5751 5746 5741 5737 5732 5728 5723
5829 5828 5826 5825 5823 5822 5820 5818 5816 5814 5812 5809 5807 5804 5801 5798 5795 5792 5789 5785 5782 5779 5775 5771 5767 5763 5759 5755 5751 5746 5742 5737 5732 5727 5723 5719 5714 5709
5822 5820 5819 5817 5815 5813 5811 5809 5807 5805 5802 5800 5797 5794 5791 5788 5785 5781 5778 5774 5771 5767 5763 5758 5754 5750 5746 5741 5737 5732 5727 5722 5717 5712 5707 5703 5699 5694
5814 5812 5810 5809 5806 5804 5802 5800 5798 5795 5792 5789 5786 5783 5780 5777 5773 5769 5766 5762 5758 5754 5750 5745 5740 5736 5732 5728 5723 5716 5711 5707 5702 5697 5692 5687 5682 5678
5805 5804 5802 5800 5797 5795 5793 5790 5787 5784 5781 5778 5775 5771 5768 5764 5760 5757 5753 5749 5744 5740 5736 5731 5726 5721 5716 5712 5708 5702 5695 5690 5685 5680 5675 5670 5665 5660
5796 5794 5792 5790 5787 5785 5782 5779 5776 5773 5770 5766 5762 5759 5755 5751 5747 5743 5738 5734 5730 5725 5721 5716 5710 5705 5700 5695 5691 5686 5679 5672 5666 5661 5657 5652 5647 5643
5786 5784 5782 5779 5777 5774 5771 5768 5765 5761 5757 5753 5750 5745 5741 5737 5732 5728 5723 5719 5714 5709 5705 5699 5694 5688 5682 5677 5672 5667 5662 5655 5648 5642 5637 5632 5627 5623
5776 5773 5771 5768 5765 5762 5758 5755 5752 5748 5744 5740 5735 5731 5726 5721 5717 5712 5707 5702 5697 5692 5687 5682 5676 5670 5663 5658 5652 5647 5642 5637 5631 5626 5621 5614 5608 5604